STARLINK-1898 (46745 NORAD) Tracking and Keplerian Element Data

This shows tracking and keplerian element data for the satellite.

Feedback or suggestion? Click here.




ElementValue
Catalog46745
NameSTARLINK-1898
Epoch Orbit181
Epoch Day330.91667824
Epoch Year2020
RAAN1.9997
Inclination53.0549
Eccentricity8.2E-05
Argument of Perigee73.6695
Mean Anonmoly170.2371
Mean Motion15.6278692
Decay Rate-0.00040117
L11 46745U 20074G 20330.91667824 -.00040117 00000-0 -43390-3 0 9997
L22 46745 53.0549 1.9997 0000820 73.6695 170.2371 15.62786920 1812

Live tracking and technical data element details for STARLINK-1898 (NORAD 46745). STARLINK-1898 can be tracked NOW for your location showing map with azimuth and elevation plus other details from your city location.

Track the satellite on the map from your city or location and see movement details for azimuth, elevation, latitude, longitude, range, height, and movement on the map or in text.







IsCatalogInMostPopularTable: catalog: 46745, numindb: 4
Update: records affected: 1



GetName: 46745 STARLINK-1898

Hit Count: updated at: Thu, 26 Nov 2020 17:28:00 GMT